Weather History for Wink, TX

Change the Weather History Date:

Saturday, November 24, 2012

  Actual Average Record
Temperature  
Mean Temperature 47 °F -  
Max Temperature 66 °F 64 °F 83 °F (1965)
Min Temperature 28 °F 34 °F -22 °F (1996)
Degree Days  
Heating Degree Days 18    
Moisture  
Dew Point 25 °F    
Average Humidity 43    
Maximum Humidity 67    
Minimum Humidity 27    
Precipitation  
Precipitation 0.00 in - - ()
Sea Level Pressure  
Sea Level Pressure 30.21 in    
Wind  
Wind Speed 6 mph (SSE)    
Max Wind Speed 16 mph    
Max Gust Speed -    
Visibility 10 miles    
Events      
Averages and records for this station are not official NWS values.
T = Trace of Precipitation, MM = Missing Value Source: NWS Daily Summary

Daily Weather History Graph

Daily Weather History Graph

Search for Another Location

Airport:

Trip Planner

Search our weather history database for the weather conditions in past years. The results will help you decide how hot, cold, wet, or windy it might be!

Date:

Astronomy

Nov. 24, 2012 Rise Set
Actual Time 7:29 AM CST 5:49 PM CST
Civil Twilight 7:03 AM CST 6:15 PM CST
Nautical Twilight 6:33 AM CST 6:45 PM CST
Astronomical Twilight 6:04 AM CST 7:15 PM CST
Moon 3:26 PM CST (11/24) 3:58 AM CST (11/24)
Length of Visible Light 11h 12m
Length of Day
10h 20m
Waxing Gibbous, 87% of the Moon is Illuminated
Nov 24
Waxing Gibbous
Nov 28
Full
Dec 6
Last Quarter
Dec 13
New
Dec 19
First Quarter

Hourly Weather History & Observations

Time (CST) Temp. Windchill Dew Point Humidity Pressure Visibility Wind Dir Wind Speed Gust Speed Precip Events Conditions
12:53 AM 39.0 °F 35.7 °F 17.1 °F 41% 30.40 in 10.0 mi East 4.6 mph - N/A   Clear
1:53 AM 39.0 °F 34.8 °F 18.0 °F 43% 30.39 in 10.0 mi East 5.8 mph - N/A   Clear
2:53 AM 35.1 °F - 17.1 °F 48% 30.38 in 10.0 mi Calm Calm - N/A   Clear
3:53 AM 32.0 °F 28.7 °F 16.0 °F 52% 30.37 in 10.0 mi NNE 3.5 mph - N/A   Clear
4:53 AM 30.0 °F 26.5 °F 14.0 °F 51% 30.37 in 10.0 mi North 3.5 mph - N/A   Clear
5:53 AM 28.9 °F 23.9 °F 14.0 °F 54% 30.37 in 10.0 mi North 4.6 mph - N/A   Clear
6:53 AM 28.0 °F 22.8 °F 14.0 °F 56% 30.38 in 10.0 mi North 4.6 mph - N/A   Clear
7:53 AM 28.9 °F 23.9 °F 14.0 °F 54% 30.38 in 10.0 mi North 4.6 mph - N/A   Clear
8:53 AM 41.0 °F 38.0 °F 18.0 °F 40% 30.35 in 10.0 mi SE 4.6 mph - N/A   Clear
9:53 AM 51.1 °F - 19.9 °F 29% 30.32 in 10.0 mi South 16.1 mph - N/A   Clear
10:53 AM 54.0 °F - 21.9 °F 29% 30.30 in 10.0 mi SSE 9.2 mph - N/A   Clear
11:53 AM 57.9 °F - 24.1 °F 27% 30.26 in 10.0 mi SSE 8.1 mph - N/A   Clear
12:53 PM 60.1 °F - 28.0 °F 30% 30.19 in 10.0 mi SSE 6.9 mph - N/A   Clear
1:53 PM 63.0 °F - 30.0 °F 29% 30.13 in 10.0 mi South 9.2 mph - N/A   Clear
2:53 PM 66.0 °F - 32.0 °F 28% 30.09 in 10.0 mi South 9.2 mph - N/A   Clear
3:53 PM 66.9 °F - 33.1 °F 28% 30.07 in 10.0 mi South 8.1 mph - N/A   Clear
4:53 PM 66.0 °F - 33.1 °F 29% 30.06 in 10.0 mi South 8.1 mph - N/A   Clear
5:53 PM 61.0 °F - 33.1 °F 35% 30.05 in 10.0 mi South 6.9 mph - N/A   Clear
6:53 PM 54.0 °F - 34.0 °F 47% 30.06 in - SSE 6.9 mph - N/A   Clear
7:53 PM 51.1 °F - 34.0 °F 52% 30.06 in - SSE 8.1 mph - N/A   Clear
8:53 PM 51.1 °F - 35.1 °F 54% 30.03 in - SSE 8.1 mph - N/A   Clear
9:53 PM 46.9 °F - 34.0 °F 61% 30.02 in - SSE 5.8 mph - N/A   Clear
10:53 PM 46.9 °F - 33.1 °F 59% 30.01 in - WSW 3.5 mph - N/A   Clear
11:53 PM 42.1 °F 39.2 °F 32.0 °F 67% 30.01 in - ESE 4.6 mph - N/A   Clear